Japanese version Home page |
Updated on June 11, 2016 |
Profile |
Orbital ElementsEpoch 2015 Feb. 27.0 TT = JDT 2457080.5 T 2015 Mar. 1.21890 TT MPC q 1.8255042 (2000.0) P Q n 0.07940054 Peri. 163.80209 +0.96668493 +0.25582910 a 5.3610981 Node 181.45775 -0.25578589 +0.96421191 e 0.6594906 Incl. 19.44373 -0.00968591 +0.06961949 P 12.4 From 807 observations 1977 Sept. 13-2014 Apr. 30, mean residual 0".6. Nongravitational parameters A1 = +0.16, A2 = -0.0077.
|
Finding Charts
|
Magnitudes GraphH = 15.5 G = 0.15 [ ,-140] ( - 2014 Oct. 12) m1 = 4.0 + 5 log d + 40 log r [-140, 0] (2014 Oct. 12 - 2015 Mar. 1) m1 = 8.5 + 5 log d + 22.5 log r [ 0, 210] (2015 Mar. 1 - 2015 Sept.27) H = 15.5 G = 0.15 [ 210, ] (2015 Sept.27 - )
|
The orbital elements are published on M.P.E.C. 2014-J58.
|